Find Starlink 11420

NORAD ID: 62591 Int'l Des: 2025-008 Owner: SPXS Country: US Constellation: starlink operational
LEOCIRCULAR

Current View

Loading 3D Globe...

About Starlink 11420

Starlink 11420 (NORAD 62591) is a starlink constellation satellite (v2 mini d2c) launched Jan 13, 2025 by SPXS of US. It operates in LEO, CIRCULAR orbit with a mass of 960.00 kg.

About Starlink 11420

Description loading...

Upcoming Passes

Passes for default location (London). Set your location on the main map for personalized predictions.

Altitude History

Loading altitude history...

Two-Line Element Set

1 62591U 25008E 26169.22044814 .00132908 00000-0 10197-2 0 9990
2 62591 42.9983 240.3314 0001333 255.7731 104.2989 15.70912195 83102
Epoch: Jun 18, 2026 • Age: 8 hours

Current Status

Altitude 355.9 km
Velocity 7.70 km/s
Sub-Earth Point -2.44°S, 51.45°W
Launch Date Jan 13, 2025
Age 1.4 years
Type internet

Technical Details

Classification Payload
Mass 960.00 kg
Dry Mass 910.00 kg
Total Mass 960.00 kg
Length 0.30 m
Diameter 4.10 m
Span 29.00 m
Shape Box + pan
Manufacturer SPXS
Bus Type Starlink V2MD
Phase Status In Orbit
Owner/State SPXS/US

Most Searched